Location: Vancouver
(49.2500°N, 123.1330°W)
Time: 02:52:16
(UTC-07:00)

BREEZE-M DEB (TANK) - Visible Passes

Search period start: 27 August 2016 00:00
Search period end: 06 September 2016 00:00
Orbit: 283 x 13323 km, 49.6° (Epoch: 25 August)

Date Brightness Start Highest point End Pass type
(mag) Time Alt. Az. Time Alt. Az. Time Alt. Az.
27 Aug 4.2 22:05:14 10° WNW 22:27:56 75° SSW 22:30:47 37° SE visible
28 Aug 4.3 23:22:16 10° WNW 23:36:12 43° SW 23:36:47 42° SW visible
30 Aug 5.6 00:37:13 10° WNW 00:42:45 16° WSW 00:42:45 16° WSW visible
30 Aug 4.8 21:02:33 10° W 21:32:48 84° SSW 21:37:42 21° ESE visible
31 Aug 4.1 22:22:23 10° WNW 22:41:40 59° SW 22:43:38 43° SSE visible
01 Sep 5.0 23:38:15 10° WNW 23:49:01 28° WSW 23:49:32 28° SW visible
02 Sep 5.4 19:57:01 10° W 20:37:06 89° S 20:44:27 10° E visible
03 Sep 4.5 21:20:38 10° WNW 21:46:33 73° SSW 21:50:20 29° SE visible
04 Sep 4.4 22:38:35 10° WNW 22:54:36 42° SW 22:56:11 37° SSW visible
